Hourly Weather Luga

Today, 17 May, Monday

Time Temperature Precipitation Wind Pressure Humidity
00:00 +12°C° 0 mm 1 mps 753 mmHg 95%
01:00 +12°C° 0 mm 2 mps 753 mmHg 95%
02:00 +12°C° 0 mm 2 mps 753 mmHg 96%
03:00 +12°C° 0 mm 2 mps 753 mmHg 95%
04:00 +13°C° 0 mm 2 mps 753 mmHg 94%
05:00 +13°C° 0 mm 2 mps 753 mmHg 93%
06:00 +14°C° 0 mm 3 mps 753 mmHg 86%
07:00 +17°C° 0 mm 3 mps 753 mmHg 78%
08:00 +18°C° 0 mm 3 mps 753 mmHg 71%
09:00 +20°C° 0 mm 3 mps 752 mmHg 66%
10:00 +21°C° 0 mm 4 mps 752 mmHg 61%
11:00 +22°C° 0 mm 4 mps 752 mmHg 55%
12:00 +22°C° 0.1 mm 4 mps 752 mmHg 55%
13:00 +23°C° 0.1 mm 4 mps 751 mmHg 55%
14:00 +23°C° 0.1 mm 4 mps 751 mmHg 55%
15:00 +22°C° 0.1 mm 3 mps 751 mmHg 59%
16:00 +22°C° 0.1 mm 3 mps 750 mmHg 64%
17:00 +21°C° 0.1 mm 2 mps 750 mmHg 68%
18:00 +20°C° 0.4 mm 2 mps 749 mmHg 74%
19:00 +19°C° 0.4 mm 2 mps 749 mmHg 79%
20:00 +18°C° 0.4 mm 2 mps 748 mmHg 84%
21:00 +17°C° 1.4 mm 2 mps 748 mmHg 88%
22:00 +17°C° 1.4 mm 2 mps 748 mmHg 92%
23:00 +16°C° 1.4 mm 2 mps 747 mmHg 96%

Tomorrow, 18 May, Tuesday

Time Temperature Precipitation Wind Pressure Humidity
00:00 +16°C° 0.8 mm 2 mps 747 mmHg 97%
01:00 +16°C° 0.8 mm 2 mps 747 mmHg 97%
02:00 +16°C° 0.8 mm 2 mps 747 mmHg 98%
03:00 +16°C° 0.2 mm 2 mps 747 mmHg 98%
04:00 +16°C° 0.2 mm 2 mps 747 mmHg 98%
05:00 +16°C° 0.2 mm 2 mps 747 mmHg 98%
06:00 +17°C° 0.1 mm 3 mps 747 mmHg 95%
07:00 +18°C° 0.1 mm 3 mps 747 mmHg 92%
08:00 +19°C° 0.1 mm 3 mps 747 mmHg 90%
09:00 +20°C° 0.1 mm 3 mps 747 mmHg 88%
10:00 +20°C° 0.1 mm 3 mps 747 mmHg 86%
11:00 +21°C° 0.1 mm 3 mps 747 mmHg 85%
12:00 +21°C° 0.5 mm 3 mps 747 mmHg 83%
13:00 +22°C° 0.5 mm 3 mps 747 mmHg 82%
14:00 +23°C° 0.5 mm 2 mps 747 mmHg 80%
15:00 +23°C° 0.9 mm 2 mps 747 mmHg 82%
16:00 +23°C° 0.9 mm 2 mps 747 mmHg 83%
17:00 +21°C° 0.9 mm 2 mps 746 mmHg 85%
18:00 +20°C° 2.4 mm 2 mps 747 mmHg 89%
19:00 +19°C° 2.4 mm 1 mps 747 mmHg 93%
20:00 +18°C° 2.4 mm 1 mps 747 mmHg 97%
21:00 +16°C° 0.2 mm 1 mps 747 mmHg 97%
22:00 +16°C° 0.2 mm 2 mps 747 mmHg 97%
23:00 +16°C° 0.2 mm 2 mps 747 mmHg 97%

Day after tomorrow, 19 May, Wednesday

Time Temperature Precipitation Wind Pressure Humidity
00:00 +16°C° 0 mm 2 mps 747 mmHg 97%
01:00 +16°C° 0 mm 2 mps 747 mmHg 96%
02:00 +16°C° 0 mm 2 mps 746 mmHg 96%
03:00 +16°C° 0 mm 2 mps 746 mmHg 96%
04:00 +16°C° 0 mm 3 mps 746 mmHg 96%
05:00 +16°C° 0 mm 3 mps 746 mmHg 96%
06:00 +17°C° 0 mm 3 mps 746 mmHg 91%
07:00 +18°C° 0 mm 3 mps 746 mmHg 86%
08:00 +19°C° 0 mm 3 mps 747 mmHg 81%
09:00 +20°C° 0.2 mm 3 mps 747 mmHg 77%
10:00 +20°C° 0.2 mm 4 mps 747 mmHg 73%
11:00 +21°C° 0.2 mm 4 mps 747 mmHg 69%
12:00 +21°C° 0.7 mm 3 mps 747 mmHg 72%
13:00 +21°C° 0.7 mm 3 mps 747 mmHg 75%
14:00 +21°C° 0.7 mm 3 mps 747 mmHg 77%
15:00 +20°C° 1 mm 3 mps 747 mmHg 81%
16:00 +20°C° 1 mm 2 mps 747 mmHg 84%
17:00 +19°C° 1 mm 2 mps 747 mmHg 87%
18:00 +18°C° 1.1 mm 2 mps 748 mmHg 90%
19:00 +17°C° 1.1 mm 2 mps 748 mmHg 93%
20:00 +15°C° 1.1 mm 2 mps 749 mmHg 96%
21:00 +15°C° 0.3 mm 2 mps 749 mmHg 97%
22:00 +14°C° 0.3 mm 2 mps 749 mmHg 97%
23:00 +13°C° 0.3 mm 1 mps 749 mmHg 98%

20 May, Thursday

Time Temperature Precipitation Wind Pressure Humidity
00:00 +12°C° 0 mm 2 mps 750 mmHg 97%
01:00 +12°C° 0 mm 2 mps 750 mmHg 97%
02:00 +12°C° 0 mm 2 mps 750 mmHg 97%
03:00 +10°C° 0 mm 2 mps 750 mmHg 96%
04:00 +10°C° 0 mm 2 mps 751 mmHg 96%
05:00 +11°C° 0 mm 1 mps 751 mmHg 96%
06:00 +12°C° 0 mm 2 mps 751 mmHg 91%
07:00 +13°C° 0 mm 2 mps 751 mmHg 87%
08:00 +13°C° 0 mm 3 mps 751 mmHg 82%
09:00 +14°C° 0.2 mm 3 mps 750 mmHg 80%
10:00 +16°C° 0.2 mm 3 mps 750 mmHg 77%
11:00 +17°C° 0.2 mm 3 mps 750 mmHg 74%
12:00 +17°C° 0.3 mm 3 mps 749 mmHg 77%
13:00 +17°C° 0.3 mm 3 mps 749 mmHg 79%
14:00 +17°C° 0.3 mm 4 mps 749 mmHg 81%
15:00 +15°C° 0.5 mm 4 mps 748 mmHg 84%
16:00 +15°C° 0.5 mm 4 mps 747 mmHg 88%
17:00 +15°C° 0.5 mm 5 mps 746 mmHg 91%
18:00 +14°C° 2.7 mm 5 mps 745 mmHg 93%
19:00 +13°C° 2.7 mm 5 mps 745 mmHg 95%
20:00 +12°C° 2.7 mm 5 mps 744 mmHg 97%
21:00 +12°C° 0.1 mm 4 mps 744 mmHg 97%
22:00 +13°C° 0.1 mm 4 mps 744 mmHg 97%
23:00 +13°C° 0.1 mm 3 mps 744 mmHg 97%

21 May, Friday

Time Temperature Precipitation Wind Pressure Humidity
00:00 +12°C° 0 mm 3 mps 744 mmHg 97%
01:00 +11°C° 0 mm 3 mps 743 mmHg 97%
02:00 +12°C° 0 mm 2 mps 743 mmHg 98%
03:00 +12°C° 0 mm 2 mps 743 mmHg 98%
04:00 +11°C° 0 mm 3 mps 743 mmHg 97%
05:00 +12°C° 0 mm 3 mps 743 mmHg 97%
06:00 +11°C° 0.2 mm 3 mps 743 mmHg 96%
07:00 +11°C° 0.2 mm 3 mps 743 mmHg 95%
08:00 +11°C° 0.2 mm 4 mps 743 mmHg 94%
09:00 +11°C° 0.1 mm 4 mps 743 mmHg 94%
10:00 +11°C° 0.1 mm 3 mps 743 mmHg 94%
11:00 +11°C° 0.1 mm 3 mps 743 mmHg 95%
12:00 +11°C° 0.1 mm 3 mps 743 mmHg 95%
13:00 +11°C° 0.1 mm 3 mps 743 mmHg 95%
14:00 +11°C° 0.1 mm 3 mps 743 mmHg 95%
15:00 +12°C° 0.2 mm 2 mps 743 mmHg 96%
16:00 +12°C° 0.2 mm 2 mps 743 mmHg 96%
17:00 +10°C° 0.2 mm 2 mps 743 mmHg 97%
18:00 +10°C° 0.3 mm 2 mps 743 mmHg 97%
19:00 +10°C° 0.3 mm 2 mps 743 mmHg 97%
20:00 +10°C° 0.3 mm 2 mps 743 mmHg 98%
21:00 +10°C° 0.3 mm 3 mps 743 mmHg 97%
22:00 +10°C° 0.3 mm 4 mps 744 mmHg 97%
23:00 +8°C° 0.3 mm 4 mps 744 mmHg 97%

22 May, Saturday

Time Temperature Precipitation Wind Pressure Humidity
00:00 +8°C° 0.5 mm 5 mps 744 mmHg 96%
01:00 +8°C° 0.5 mm 5 mps 745 mmHg 96%
02:00 +8°C° 0.5 mm 5 mps 745 mmHg 96%
03:00 +7°C° 0.3 mm 6 mps 746 mmHg 95%
04:00 +7°C° 0.3 mm 6 mps 746 mmHg 94%
05:00 +7°C° 0.3 mm 6 mps 747 mmHg 94%
06:00 +7°C° 0 mm 5 mps 748 mmHg 93%
07:00 +7°C° 0 mm 5 mps 748 mmHg 92%
08:00 +7°C° 0 mm 5 mps 749 mmHg 91%
09:00 +9°C° 0 mm 5 mps 749 mmHg 80%
10:00 +13°C° 0 mm 5 mps 750 mmHg 68%
11:00 +15°C° 0 mm 5 mps 750 mmHg 57%
12:00 +15°C° 0 mm 5 mps 750 mmHg 53%
13:00 +16°C° 0 mm 5 mps 751 mmHg 49%
14:00 +17°C° 0 mm 5 mps 751 mmHg 46%
15:00 +16°C° 0.1 mm 5 mps 752 mmHg 49%
16:00 +17°C° 0.1 mm 4 mps 752 mmHg 53%
17:00 +17°C° 0.1 mm 4 mps 752 mmHg 56%
18:00 +14°C° 0.1 mm 3 mps 753 mmHg 64%
19:00 +13°C° 0.1 mm 2 mps 753 mmHg 73%
20:00 +11°C° 0.1 mm 1 mps 754 mmHg 81%
21:00 +11°C° 0 mm 1 mps 754 mmHg 84%
22:00 +10°C° 0 mm 1 mps 755 mmHg 87%
23:00 +9°C° 0 mm 1 mps 755 mmHg 90%
Show more

We Need Your Consent

Meteoprog and our Service Providers may store and access personal data such as cookies, device identifiers or other similar technologies on your device and process such data to personalise content and ads, as well as provide social media features and to analyse the traffic.

  • Store and/or access information on your device

    Cookies, device identifiers or other information can be stored or accessed on your device for the purposes indicated above.

  • Personalised ads and content, ad and content measurement, audience insights, and products development

    Ads and content can be personalised based on a profile. More data can be added to better personalise ads and content. Ad and content performance can be measured. Insights about the audience who saw the ads and content can be derived. Such data can be used to develop or improve user’s experience, systems and software.

By clicking ‘I Agree’ you will allow the use of indicated cookies, device identifiers, web beacons or other similar technologies. Your settings can be changed in the browser on your device.

For certain purposes, legitimate interests may be relied on, rather than consent. You can read more about this in our Privacy and Cookie Policy.